Location: ??
(34.9170°N, 135.5016°E)
Time: 18:11:53
(UTC+00:00)

Cosmos 2058 Rocket - Pass Details

Date: 29 October 2020
Orbit: 610 x 640 km, 82.5° (Epoch: 01 December)

Event Time Altitude Azimuth Distance (km) Brightness Sun altitude
Rises 20:20:55 0° 347° (NNW) 2,937 6.3 -12.0°
Reaches altitude 10° 20:23:13 10° 342° (NNW) 2,021 5.4 -11.6°
Maximum altitude 20:27:32 49° 267° (W) 809 3.3 -10.7°
Drops below altitude 10° 20:31:48 10° 193° (SSW) 1,990 5.6 -9.8°
Sets 20:34:03 0° 187° (S) 2,887 6.5 -9.4°
